Wind_Speed
5 6 5 9 9 2 7 5 1 12 5 8 6 9 7 8 7 8 5 3 5 7 8 8 7 7 9 10 11 12 12 13 13 14 14 15 16 17 18 19 18 15 18 19
7 9 2 10 8 4 4 5 1 12 6 7 7 11 10 7 9 7 5 7 7 6 8 9 10 7 7 10 11 11 12 14 15 15 15 16 16 18 18 20 20 21 20 20
6 1 5 6 3 4 27 10 10 8 12 13 12 11 10 1 7 12 10 8 9 8 7 7 10 11 10 9 11 11 10 11 14 16 17 19 20 21 22 24 25 24 24 28
2 7 2 6 9 10 19 20 7 5 4 10 9 15 13 20 15 11 7 7 6 11 13 11 9 10 11 12 13 14 14 14 15 16 17 20 24 27 30 29 28 29 27 33
11 6 6 12 10 11 8 18 2 4 8 16 28 22 18 15 14 14 17 8 12 12 13 15 15 13 13 13 11 14 17 16 13 16 18 18 22 26 29 30 31 23 30 37
8 13 12 13 12 12 16 10 8 12 9 18 31 28 20 26 13 22 6 21 17 15 15 17 18 18 17 19 20 18 15 20 22 19 18 19 22 29 31 37 29 37 31 36
16 14 14 17 18 12 16 7 8 23 27 19 25 35 21 26 8 5 18 29 29 24 22 19 18 21 21 20 22 22 21 20 25 24 22 25 27 29 31 32 37 36 37 41
23 23 20 21 27 17 21 15 13 15 16 32 37 37 18 32 9 8 24 23 26 21 23 23 25 25 27 23 23 25 25 22 21 21 26 29 32 33 38 39 43 44 43 43
27 23 25 8 14 13 15 18 14 24 22 20 27 35 23 23 19 24 16 11 17 24 25 29 27 25 32 32 31 32 27 22 23 26 27 30 36 40 32 47 46 44 39 42
33 34 26 21 18 19 26 21 21 15 23 26 13 21 36 33 38 32 10 6 21 21 25 28 28 30 31 32 32 31 27 31 34 34 31 35 39 42 50 46 47 48 47 46
30 27 24 22 22 20 21 18 14 13 16 18 16 15 26 35 32 34 30 41 27 32 32 29 26 29 32 32 29 30 32 35 36 36 33 35 37 38 35 35 33 34 34 30
16 18 18 16 17 15 19 18 18 21 19 17 17 18 27 38 38 39 43 34 32 34 34 34 29 30 31 33 33 34 38 37 39 37 37 37 37 37 37 37 30 28 28 29
33 21 16 15 14 11 23 18 22 21 21 24 21 21 34 36 38 42 47 44 40 34 31 29 29 29 31 33 35 37 38 40 40 40 39 38 38 40 38 35 31 28 30 32
36 32 31 24 21 21 21 21 17 22 19 19 20 24 34 43 43 45 44 45 42 32 32 32 35 36 36 36 37 37 38 40 42 44 45 41 40 39 40 39 39 38 33 31
32 33 34 37 38 39 32 30 29 25 24 28 27 26 33 43 48 46 41 39 39 39 34 38 39 37 34 33 34 36 40 42 44 44 45 45 44 44 43 41 42 42 40 37
23 20 22 28 26 30 32 46 48 47 40 36 25 37 41 55 59 51 38 36 34 39 41 41 38 33 30 31 33 35 37 39 41 44 47 48 51 50 47 45 43 43 39 35
34 33 35 34 29 26 28 19 24 26 31 32 35 38 45 52 56 41 24 42 33 32 35 34 29 29 30 31 32 34 35 33 32 35 40 46 48 45 50 48 45 36 34 32
30 33 31 30 25 31 20 25 30 24 19 28 34 41 44 40 60 36 25 29 33 33 29 26 27 30 30 30 32 30 28 29 34 33 31 26 27 33 34 30 24 25 26 24
21 28 26 27 23 19 16 27 19 29 27 33 39 39 37 31 18 28 23 29 24 21 22 25 26 26 29 29 27 26 27 28 29 29 29 28 28 23 20 21 21 19 22 25
23 31 22 22 20 21 19 27 25 22 25 36 30 30 38 28 22 26 24 14 19 18 21 30 26 25 26 25 26 26 25 25 27 29 29 27 26 23 20 17 18 18 14 16
29 26 18 12 10 14 24 25 22 23 27 33 20 10 19 15 21 22 23 18 21 19 21 24 24 25 25 23 23 23 24 27 28 27 26 23 23 18 15 16 13 16 16 17
27 24 12 17 26 30 30 31 28 25 25 26 27 21 15 14 18 19 21 19 19 18 17 18 19 19 20 22 22 24 26 26 25 24 21 18 13 12 15 15 16 15 15 16
24 23 28 23 29 12 6 29 26 27 21 16 17 17 13 15 17 24 25 21 19 21 20 18 17 19 20 22 23 24 26 24 21 16 13 13 16 16 14 14 15 16 18 17
22 24 27 20 16 13 22 24 17 20 16 16 15 16 17 17 16 16 18 18 19 19 17 17 18 19 20 21 22 23 20 19 15 11 8 9 11 12 13 13 15 17 15 15
21 26 24 24 21 28 28 24 21 22 18 20 18 17 19 21 19 18 19 19 18 14 15 16 18 18 20 21 22 23 19 16 16 15 15 14 14 14 14 15 16 15 16 16
21 23 17 20 21 21 23 18 16 16 17 19 20 19 19 20 20 18 18 18 15 14 16 18 19 20 21 22 21 20 18 15 15 15 15 15 15 15 16 16 16 16 16 17
Wind_Direction
161 167 162 225 224 337 42 19 255 297 273 287 248 295 279 331 4 11 344 283 257 259 275 286 293 279 250 242 227 232 243 242 244 250 251 252 253 255 263 267 270 270 275 278
158 87 71 218 220 185 274 254 258 256 285 311 295 315 319 330 346 356 333 357 350 307 272 276 284 281 269 257 256 248 247 254 256 257 258 260 265 268 270 274 281 280 279 275
96 327 69 98 351 293 269 185 234 233 274 288 299 283 263 315 216 312 326 332 332 335 332 304 289 286 280 273 274 273 267 268 261 262 266 267 272 280 283 283 277 274 274 271
191 141 49 121 236 260 246 323 245 213 18 299 318 335 275 229 197 271 307 318 319 323 318 313 311 305 299 292 286 276 277 281 281 278 274 274 278 281 275 279 278 279 278 277
343 260 271 255 210 255 258 305 356 4 14 329 291 272 284 297 258 192 294 309 322 321 319 313 311 302 285 285 283 295 296 287 287 278 269 270 278 280 283 282 280 272 278 277
282 289 276 270 254 255 277 304 19 306 264 245 275 281 279 275 272 261 315 305 310 310 314 316 310 310 310 298 290 289 285 296 291 287 292 288 286 284 283 292 285 262 289 285
276 273 273 280 272 265 270 283 283 293 301 247 284 283 288 298 340 246 284 293 297 298 294 298 296 296 294 291 299 294 296 291 288 294 290 293 300 298 292 286 290 281 284 289
278 275 319 276 267 210 263 250 269 266 293 297 307 313 315 315 268 263 276 273 278 283 288 294 287 295 286 292 291 287 288 294 292 292 303 303 305 297 292 284 281 278 280 285
255 255 250 243 318 317 259 265 256 266 277 282 294 301 304 314 218 231 213 257 279 283 285 289 288 284 282 285 285 287 293 289 288 287 299 297 292 283 298 297 274 285 281 305
267 277 253 293 268 279 296 265 260 249 272 266 253 290 302 294 288 275 325 99 315 304 284 277 274 276 276 281 286 292 290 289 288 291 290 294 300 310 309 314 313 310 312 307
243 266 255 247 265 274 278 289 292 291 264 279 290 295 288 288 287 302 295 304 303 294 293 278 267 271 275 277 279 278 276 277 284 286 290 289 295 300 309 310 309 309 314 310
258 260 261 261 262 263 273 268 250 255 259 259 262 270 272 287 286 292 297 300 289 284 283 280 278 280 281 282 281 280 279 284 284 282 285 291 295 296 298 302 306 308 307 303
263 262 275 281 278 264 243 260 271 258 262 266 266 267 271 272 278 277 278 280 284 282 284 283 283 283 281 282 283 280 279 279 284 288 290 290 290 295 296 297 300 299 297 292
264 260 251 245 220 240 268 226 255 257 255 247 242 267 276 264 263 268 276 275 277 279 280 286 293 290 287 284 282 280 277 279 281 283 286 290 290 290 291 295 296 299 296 287
271 266 259 255 252 230 239 235 231 235 248 254 249 236 288 274 263 275 251 262 267 272 276 291 290 288 285 282 276 275 276 278 281 283 284 284 286 288 289 290 293 293 299 296
290 284 276 275 276 274 267 251 257 259 254 257 265 268 258 256 260 261 277 270 271 281 285 282 283 281 279 281 282 282 282 286 286 288 289 289 287 287 285 285 289 293 292 289
271 272 276 277 267 263 263 273 260 252 260 263 254 254 252 257 262 241 255 267 278 283 287 283 279 279 281 282 287 290 289 290 297 300 298 285 287 287 285 287 289 283 286 283
278 279 280 280 274 268 287 260 266 261 244 250 251 251 257 266 252 265 300 283 275 276 280 279 284 287 285 289 292 293 291 289 292 299 300 304 300 296 289 291 288 290 285 283
270 273 264 269 273 280 244 266 250 252 250 269 261 254 277 256 289 311 279 284 288 283 287 286 285 287 289 293 290 293 295 293 294 296 296 296 297 298 292 289 286 284 290 291
273 291 283 266 254 250 243 265 255 262 288 284 279 266 261 286 272 280 270 12 293 280 279 286 284 289 290 292 293 297 299 299 300 298 294 292 292 288 288 283 293 298 297 305
271 275 248 292 285 259 258 261 264 274 271 271 289 289 260 266 271 278 287 286 288 299 285 277 282 286 288 293 296 302 302 304 304 301 300 293 293 283 284 296 298 301 307 308
272 268 281 232 232 229 246 249 262 278 283 270 267 271 275 279 281 283 286 282 291 299 298 292 287 289 295 301 303 307 308 308 306 304 297 293 289 284 294 291 301 308 311 312
271 242 243 242 251 236 138 261 267 279 271 261 258 273 279 280 288 298 293 294 291 295 300 302 303 303 303 306 307 308 309 309 309 310 300 283 287 290 288 297 307 308 309 308
270 240 257 249 246 229 246 275 262 262 259 262 273 276 279 279 283 281 287 291 292 294 295 299 301 303 305 306 309 311 311 311 306 302 300 283 288 293 296 299 304 308 311 310
252 274 271 253 239 253 252 269 259 258 266 273 279 279 274 277 283 282 288 290 288 285 291 299 305 310 308 311 315 316 313 308 293 290 297 292 293 296 298 300 302 299 305 313
263 256 239 244 236 256 257 267 256 258 269 275 280 278 277 274 274 277 282 282 273 277 286 295 305 309 310 313 315 315 307 307 303 290 293 292 293 295 300 297 297 300 314 319
Height
5922 5921 5922 5922 5923 5925 5924 5925 5924 5927 5930 5930 5929 5928 5927 5928 5924 5924 5925 5924 5924 5924 5926 5926 5927 5928 5928 5929 5930 5931 5932 5933 5935 5935 5937 5938 5938 5938 5937 5937 5936 5939 5937 5937
5921 5922 5922 5921 5923 5927 5929 5926 5925 5928 5928 5929 5930 5929 5924 5924 5924 5925 5924 5923 5923 5924 5925 5926 5926 5926 5927 5928 5929 5929 5930 5931 5932 5933 5934 5934 5935 5935 5936 5936 5937 5934 5933 5932
5920 5907 5921 5923 5926 5928 5916 5918 5922 5927 5928 5929 5927 5927 5926 5924 5923 5922 5921 5922 5922 5923 5925 5926 5925 5926 5926 5927 5928 5928 5928 5929 5930 5931 5932 5932 5932 5932 5933 5931 5931 5930 5929 5927
5919 5920 5923 5925 5927 5923 5923 5920 5926 5925 5924 5925 5926 5924 5923 5914 5911 5921 5925 5922 5921 5922 5922 5924 5924 5924 5924 5925 5926 5925 5926 5926 5927 5928 5929 5929 5929 5927 5922 5923 5922 5923 5924 5921
5918 5925 5924 5926 5926 5925 5925 5925 5923 5925 5922 5929 5920 5917 5915 5911 5913 5909 5921 5920 5918 5920 5920 5921 5922 5923 5922 5922 5925 5926 5924 5923 5924 5923 5924 5925 5924 5921 5921 5922 5914 5897 5912 5912
5922 5923 5924 5923 5924 5924 5922 5923 5922 5922 5927 5926 5919 5912 5909 5917 5920 5922 5915 5918 5918 5918 5918 5918 5918 5918 5919 5919 5920 5921 5922 5921 5920 5921 5920 5920 5920 5916 5915 5904 5908 5885 5902 5903
5921 5922 5923 5923 5921 5924 5924 5925 5926 5920 5921 5913 5915 5917 5912 5914 5915 5917 5919 5917 5917 5917 5917 5918 5917 5915 5914 5916 5916 5916 5917 5918 5916 5915 5914 5911 5912 5910 5908 5907 5904 5901 5899 5899
5919 5921 5921 5922 5918 5914 5922 5922 5921 5922 5923 5917 5913 5912 5909 5906 5905 5908 5911 5911 5912 5912 5913 5913 5912 5911 5910 5913 5911 5910 5911 5913 5910 5909 5909 5908 5906 5902 5899 5896 5894 5893 5891 5893
5914 5914 5913 5910 5911 5909 5919 5919 5920 5918 5918 5920 5917 5904 5908 5906 5898 5894 5901 5909 5911 5910 5909 5910 5909 5910 5906 5905 5905 5904 5906 5906 5903 5903 5902 5900 5897 5894 5891 5890 5887 5885 5885 5883
5906 5905 5907 5912 5915 5912 5910 5911 5911 5913 5912 5912 5916 5913 5899 5903 5893 5897 5893 5896 5908 5907 5905 5905 5905 5904 5903 5901 5900 5899 5899 5899 5898 5897 5896 5892 5888 5878 5880 5880 5880 5878 5874 5873
5902 5900 5905 5906 5907 5908 5910 5907 5908 5909 5911 5911 5914 5916 5902 5897 5898 5896 5896 5894 5898 5901 5900 5900 5899 5897 5895 5895 5894 5893 5893 5892 5890 5889 5888 5884 5881 5879 5877 5875 5874 5872 5866 5863
5899 5898 5898 5902 5905 5907 5907 5905 5906 5907 5909 5909 5910 5915 5899 5891 5894 5895 5888 5887 5894 5895 5895 5894 5893 5892 5889 5887 5888 5887 5885 5884 5882 5881 5880 5877 5874 5872 5871 5870 5867 5864 5860 5859
5893 5894 5896 5897 5901 5904 5898 5901 5902 5901 5902 5902 5904 5908 5896 5896 5895 5892 5890 5888 5885 5885 5885 5885 5885 5884 5883 5881 5879 5878 5877 5875 5872 5870 5869 5868 5867 5864 5861 5860 5859 5858 5857 5855
5886 5888 5887 5887 5890 5891 5888 5891 5892 5893 5893 5894 5896 5898 5888 5883 5884 5880 5880 5880 5879 5877 5876 5875 5875 5875 5874 5873 5871 5869 5868 5866 5864 5862 5860 5859 5858 5856 5855 5854 5852 5850 5848 5846
5876 5877 5878 5878 5878 5880 5876 5876 5878 5880 5882 5884 5884 5884 5879 5871 5865 5869 5868 5872 5872 5873 5869 5868 5867 5866 5865 5864 5863 5862 5859 5857 5856 5855 5853 5850 5849 5847 5845 5843 5841 5839 5837 5834
5870 5869 5868 5867 5869 5869 5869 5874 5873 5874 5874 5871 5875 5876 5869 5856 5854 5857 5858 5863 5864 5864 5860 5858 5858 5857 5857 5856 5855 5853 5851 5849 5847 5844 5841 5839 5837 5836 5834 5832 5831 5829 5827 5824
5863 5861 5859 5859 5861 5861 5860 5863 5862 5861 5863 5863 5865 5864 5857 5849 5845 5835 5840 5849 5853 5852 5849 5849 5850 5849 5848 5848 5846 5845 5843 5840 5838 5835 5830 5826 5825 5823 5821 5820 5819 5819 5818 5815
5854 5852 5851 5850 5852 5850 5856 5854 5852 5854 5854 5853 5851 5844 5844 5829 5828 5839 5837 5843 5844 5843 5842 5843 5842 5842 5841 5840 5839 5837 5835 5832 5829 5826 5823 5819 5816 5814 5810 5810 5810 5809 5809 5807
5848 5845 5845 5843 5845 5847 5849 5844 5845 5843 5846 5843 5842 5837 5827 5817 5822 5821 5832 5833 5836 5836 5836 5835 5835 5834 5833 5832 5831 5829 5826 5824 5821 5818 5816 5813 5811 5809 5806 5805 5804 5803 5802 5800
5842 5839 5838 5838 5838 5840 5841 5834 5839 5838 5839 5831 5832 5832 5831 5829 5832 5829 5830 5827 5831 5831 5829 5829 5829 5828 5827 5826 5824 5822 5819 5817 5814 5811 5809 5807 5805 5803 5801 5800 5799 5798 5797 5794
5837 5833 5832 5834 5834 5836 5831 5830 5832 5835 5833 5829 5815 5819 5822 5826 5827 5824 5823 5826 5830 5826 5824 5823 5823 5822 5821 5820 5818 5815 5813 5810 5807 5804 5801 5799 5797 5796 5796 5795 5795 5793 5792 5790
5830 5830 5827 5827 5825 5824 5826 5826 5828 5828 5825 5824 5823 5820 5822 5823 5823 5823 5824 5826 5823 5820 5819 5819 5819 5817 5815 5814 5812 5810 5807 5804 5800 5797 5794 5793 5792 5792 5792 5791 5790 5788 5787 5786
5824 5824 5820 5822 5823 5818 5821 5821 5823 5823 5821 5820 5820 5820 5821 5820 5819 5816 5814 5815 5815 5815 5814 5813 5812 5811 5810 5809 5807 5804 5801 5798 5795 5792 5790 5789 5789 5788 5788 5787 5785 5784 5782 5781
5816 5814 5814 5815 5817 5815 5817 5817 5818 5818 5818 5817 5818 5817 5817 5816 5817 5815 5813 5812 5811 5811 5810 5810 5808 5807 5806 5804 5802 5799 5796 5793 5791 5790 5788 5787 5786 5785 5784 5782 5781 5780 5779 5777
5810 5807 5809 5811 5810 5811 5812 5812 5815 5814 5814 5812 5813 5813 5812 5812 5812 5811 5810 5808 5808 5808 5807 5806 5805 5804 5802 5799 5796 5793 5791 5789 5787 5786 5785 5783 5782 5781 5780 5778 5777 5776 5775 5773
5802 5799 5799 5799 5805 5807 5807 5808 5809 5809 5809 5808 5807 5808 5807 5806 5806 5807 5805 5804 5805 5805 5804 5803 5801 5799 5796 5793 5791 5788 5786 5784 5782 5781 5780 5779 5778 5777 5775 5774 5773 5771 5770 5768